Weather History for Savanna, IL

Change the Weather History Date:

Tuesday, February 19, 2013

  Actual Average (KCWI) Record (KCWI)
Temperature  
Mean Temperature 13 °F -  
Max Temperature 18 °F 37 °F 61 °F (1971)
Min Temperature 8 °F 20 °F -15 °F (1979)
Degree Days  
Heating Degree Days 52    
Moisture  
Dew Point 6 °F    
Average Humidity 72    
Maximum Humidity 79    
Minimum Humidity 68    
Precipitation  
Precipitation 0.04 in - - ()
Sea Level Pressure  
Sea Level Pressure 29.98 in    
Wind  
Wind Speed 18 mph (WNW)    
Max Wind Speed 23 mph    
Max Gust Speed 34 mph    
Visibility 9 miles    
Events Snow    
Averages and records for this station are not official NWS values.
T = Trace of Precipitation, MM = Missing Value Source: NWS Daily Summary

Daily Weather History Graph

Daily Weather History Graph

Search for Another Location

Airport:

Trip Planner

Search our weather history database for the weather conditions in past years. The results will help you decide how hot, cold, wet, or windy it might be!

Date:

Astronomy

Feb. 19, 2013 Rise Set
Actual Time 6:50 AM CST 5:38 PM CST
Civil Twilight 6:21 AM CST 6:07 PM CST
Nautical Twilight 5:49 AM CST 6:39 PM CST
Astronomical Twilight 5:17 AM CST 7:12 PM CST
Moon 12:07 PM CST (2/19) 2:25 AM CST (2/19)
Length of Visible Light 11h 45m
Length of Day
10h 48m
Waxing Gibbous, 67% of the Moon is Illuminated
Feb 19
Waxing Gibbous
Feb 25
Full
Mar 4
Last Quarter
Mar 11
New
Mar 19
First Quarter

Hourly Weather History & Observations

Time (CST) Temp. Windchill Dew Point Humidity Pressure Visibility Wind Dir Wind Speed Gust Speed Precip Events Conditions
12:15 AM 18.9 °F 3.8 °F 12.0 °F 75% 29.72 in 10.0 mi West 17.3 mph 29.9 mph N/A   Overcast
12:35 AM 18.5 °F 1.6 °F 12.0 °F 76% 29.73 in 10.0 mi West 21.9 mph 29.9 mph N/A   Overcast
12:55 AM 17.6 °F 0.1 °F 10.8 °F 75% 29.74 in 10.0 mi West 23.0 mph 28.8 mph N/A   Overcast
1:15 AM 16.9 °F -0.1 °F 10.0 °F 75% 29.74 in 10.0 mi West 20.7 mph 28.8 mph N/A   Overcast
1:35 AM 16.7 °F -0.7 °F 10.0 °F 75% 29.75 in 10.0 mi West 21.9 mph 28.8 mph N/A Snow Light Snow
1:55 AM 16.2 °F -1.8 °F 9.1 °F 74% 29.76 in 10.0 mi West 23.0 mph 32.2 mph N/A Snow Light Snow
2:15 AM 15.8 °F -1.1 °F 9.0 °F 74% 29.76 in 10.0 mi West 19.6 mph 31.1 mph N/A Snow Light Snow
2:35 AM 15.6 °F -1.8 °F 9.3 °F 76% 29.77 in 10.0 mi West 20.7 mph 31.1 mph N/A Snow Light Snow
2:55 AM 15.6 °F -1.8 °F 9.9 °F 78% 29.77 in 5.0 mi WNW 20.7 mph 26.5 mph N/A Snow Light Snow
3:15 AM 14.9 °F -1.8 °F 9.3 °F 79% 29.78 in 3.0 mi West 18.4 mph 27.6 mph N/A Snow Light Snow
3:35 AM 14.5 °F -1.8 °F 8.6 °F 77% 29.78 in 10.0 mi West 17.3 mph 21.9 mph N/A Snow Light Snow
3:55 AM 13.6 °F -1.9 °F 7.5 °F 77% 29.80 in 5.0 mi West 15.0 mph 28.8 mph N/A Snow Light Snow
4:15 AM 13.1 °F -4.6 °F 6.4 °F 75% 29.81 in 10.0 mi West 19.6 mph 29.9 mph N/A Snow Light Snow
4:35 AM 12.9 °F -5.7 °F 5.9 °F 74% 29.81 in 10.0 mi West 21.9 mph 29.9 mph N/A   Overcast
4:55 AM 12.6 °F -2.7 °F 6.4 °F 77% 29.82 in 10.0 mi West 13.8 mph 26.5 mph N/A   Overcast
5:15 AM 11.7 °F -6.5 °F 5.0 °F 75% 29.83 in 10.0 mi West 19.6 mph 28.8 mph N/A   Overcast
5:35 AM 11.5 °F -6.3 °F 5.0 °F 75% 29.84 in 10.0 mi West 18.4 mph 27.6 mph N/A   Overcast
5:55 AM 11.3 °F -6.0 °F 4.5 °F 74% 29.84 in 10.0 mi West 17.3 mph 31.1 mph N/A   Mostly Cloudy
6:15 AM 10.9 °F -8.3 °F 3.6 °F 72% 29.86 in 10.0 mi West 21.9 mph 29.9 mph N/A   Scattered Clouds
6:35 AM 10.4 °F -6.0 °F 3.9 °F 75% 29.86 in 7.0 mi West 15.0 mph 31.1 mph N/A   Mostly Cloudy
6:55 AM 10.0 °F -10.0 °F 2.3 °F 71% 29.88 in 10.0 mi West 23.0 mph 29.9 mph N/A   Mostly Cloudy
7:15 AM 9.9 °F -7.3 °F 2.8 °F 73% 29.89 in 10.0 mi West 16.1 mph 28.8 mph N/A   Scattered Clouds
7:35 AM 9.5 °F -9.3 °F 3.9 °F 78% 29.90 in 2.5 mi West 19.6 mph 29.9 mph N/A   Haze
7:55 AM 9.1 °F -7.7 °F 2.1 °F 73% 29.91 in 10.0 mi WNW 15.0 mph 29.9 mph N/A   Mostly Cloudy
8:15 AM 9.1 °F -8.8 °F 1.6 °F 71% 29.92 in 10.0 mi WNW 17.3 mph 31.1 mph N/A   Mostly Cloudy
8:35 AM 9.5 °F -8.3 °F 2.8 °F 74% 29.93 in 10.0 mi West 17.3 mph 26.5 mph N/A   Overcast
8:55 AM 10.0 °F -8.6 °F 2.7 °F 72% 29.94 in 10.0 mi WNW 19.6 mph 28.8 mph N/A   Overcast
9:15 AM 10.0 °F -9.5 °F 3.4 °F 74% 29.94 in 7.0 mi WNW 21.9 mph 29.9 mph N/A   Overcast
9:35 AM 10.6 °F -7.4 °F 3.6 °F 73% 29.95 in 7.0 mi West 18.4 mph 29.9 mph N/A   Overcast
9:55 AM 10.9 °F -8.8 °F 2.8 °F 70% 29.96 in 7.0 mi WNW 23.0 mph 33.4 mph N/A   Overcast
10:15 AM 11.3 °F -8.3 °F 3.2 °F 70% 29.96 in 10.0 mi WNW 23.0 mph 31.1 mph N/A   Mostly Cloudy
10:35 AM 11.7 °F -7.0 °F 4.8 °F 74% 29.97 in 5.0 mi West 20.7 mph 28.8 mph N/A   Haze
10:55 AM 11.7 °F -6.5 °F 3.6 °F 70% 29.99 in 7.0 mi West 19.6 mph 29.9 mph N/A   Overcast
11:15 AM 12.2 °F -5.3 °F 4.6 °F 72% 29.99 in 7.0 mi West 18.4 mph 28.8 mph N/A   Overcast
11:35 AM 12.2 °F -6.7 °F 3.7 °F 69% 30.00 in 7.0 mi West 21.9 mph 32.2 mph N/A   Mostly Cloudy
11:55 AM 13.1 °F -5.1 °F 5.0 °F 70% 30.00 in 10.0 mi West 20.7 mph 34.5 mph N/A   Mostly Cloudy
12:15 PM 13.1 °F -4.6 °F 4.8 °F 70% 30.01 in 10.0 mi West 19.6 mph 27.6 mph N/A   Mostly Cloudy
12:35 PM 14.0 °F -2.5 °F 5.5 °F 69% 30.01 in 10.0 mi West 17.3 mph 26.5 mph N/A   Mostly Cloudy
12:55 PM 13.8 °F -3.2 °F 6.1 °F 71% 30.01 in 10.0 mi West 18.4 mph 31.1 mph N/A   Mostly Cloudy
1:15 PM 14.7 °F -0.5 °F 7.0 °F 71% 30.01 in 10.0 mi West 15.0 mph 24.2 mph N/A   Overcast
1:35 PM 14.9 °F -0.3 °F 7.2 °F 71% 30.02 in 10.0 mi West 15.0 mph 23.0 mph N/A   Overcast
1:55 PM 14.9 °F -1.8 °F 7.7 °F 73% 30.02 in 10.0 mi WNW 18.4 mph 24.2 mph N/A   Overcast
2:15 PM 15.1 °F -1.6 °F 7.5 °F 72% 30.03 in 10.0 mi WNW 18.4 mph 27.6 mph N/A   Mostly Cloudy
2:35 PM 15.6 °F -0.4 °F 7.5 °F 70% 30.04 in 10.0 mi West 17.3 mph 25.3 mph N/A   Overcast
2:55 PM 17.1 °F 1.0 °F 8.6 °F 69% 30.04 in 10.0 mi West 18.4 mph 25.3 mph N/A   Overcast
3:15 PM 17.1 °F 1.0 °F 8.8 °F 70% 30.05 in 10.0 mi WNW 18.4 mph 25.3 mph N/A   Overcast
3:35 PM 17.2 °F 2.2 °F 8.6 °F 69% 30.06 in 10.0 mi West 16.1 mph 24.2 mph N/A   Mostly Cloudy
3:55 PM 17.6 °F 5.0 °F 9.1 °F 69% 30.07 in 10.0 mi West 11.5 mph 23.0 mph N/A   Mostly Cloudy
4:15 PM 16.7 °F 0.1 °F 7.9 °F 68% 30.08 in 10.0 mi WNW 19.6 mph 29.9 mph N/A   Scattered Clouds
4:35 PM 16.5 °F 0.8 °F 7.9 °F 69% 30.09 in 10.0 mi WNW 17.3 mph 27.6 mph N/A   Clear
4:55 PM 16.0 °F -0.4 °F 7.2 °F 68% 30.10 in 10.0 mi WNW 18.4 mph 28.8 mph N/A   Clear
5:15 PM 15.6 °F 0.1 °F 7.0 °F 69% 30.10 in 10.0 mi WNW 16.1 mph 24.2 mph N/A   Clear
6:35 PM 14.2 °F -1.7 °F 6.1 °F 70% 30.14 in 10.0 mi WNW 16.1 mph 25.3 mph N/A   Clear
6:55 PM 13.8 °F -3.2 °F 5.5 °F 70% 30.15 in 10.0 mi WNW 18.4 mph 26.5 mph N/A   Clear
7:15 PM 13.5 °F -2.1 °F 5.2 °F 70% 30.16 in 10.0 mi WNW 15.0 mph 25.3 mph N/A   Clear
7:35 PM 13.1 °F -4.2 °F 5.5 °F 72% 30.16 in 10.0 mi WNW 18.4 mph 24.2 mph N/A   Clear
7:55 PM 12.7 °F -4.1 °F 5.4 °F 72% 30.17 in 10.0 mi NW 17.3 mph - N/A   Clear
8:15 PM 12.2 °F -2.5 °F 4.1 °F 70% 30.18 in 10.0 mi WNW 12.7 mph 24.2 mph N/A   Scattered Clouds
8:35 PM 11.8 °F -3.0 °F 3.7 °F 70% 30.19 in 10.0 mi WNW 12.7 mph 19.6 mph N/A   Scattered Clouds
8:55 PM 11.3 °F -4.3 °F 3.6 °F 71% 30.21 in 10.0 mi WNW 13.8 mph 19.6 mph N/A   Clear
9:15 PM 10.9 °F -1.8 °F 3.4 °F 72% 30.21 in 10.0 mi NW 9.2 mph - N/A   Clear
9:35 PM 10.0 °F -4.5 °F 1.8 °F 69% 30.22 in 10.0 mi NW 11.5 mph 18.4 mph N/A   Clear
9:55 PM 9.5 °F -5.9 °F 1.6 °F 70% 30.23 in 10.0 mi WNW 12.7 mph - N/A   Clear
10:15 PM 9.0 °F -6.6 °F 0.9 °F 70% 30.23 in 10.0 mi WNW 12.7 mph 18.4 mph N/A   Clear
10:35 PM 8.6 °F -6.3 °F 0.5 °F 70% 30.24 in 10.0 mi WNW 11.5 mph - N/A   Clear
10:55 PM 8.6 °F -7.0 °F 0.5 °F 70% 30.26 in 10.0 mi WNW 12.7 mph 17.3 mph N/A   Clear
11:15 PM 8.4 °F -5.7 °F 0.7 °F 71% 30.26 in 10.0 mi WNW 10.4 mph - N/A   Clear
11:35 PM 8.1 °F -7.0 °F 0.3 °F 71% 30.27 in 10.0 mi WNW 11.5 mph - N/A   Clear